airserver.com alexa rank chart, airserver.com alexa rank daily changes

airserver.com alexa rank chart, airserver.com alexa rank daily changes

airserver.com
Actual rank:
71 934

RANK HISTORY

Date Rank Diff
2018/02/23 71 934 +23 577
2018/02/22 48 357 -7 309
2018/02/21 55 666 +20 911
2018/02/20 34 755 -30 157
2018/02/19 64 912 -26 714
2018/02/18 91 626 -13 499
2018/02/17 105 125 +66 026
2018/02/16 39 099 -18 686
2018/02/15 57 785 -19 088
2018/02/14 76 873 -16 123
2018/02/13 92 996 -2 809
2018/02/12 95 805 +15 837
2018/02/11 79 968 -34 124
2018/02/10 114 092 +13 620
2018/02/09 100 472 -39 850
2018/02/08 140 322 +82 378
2018/02/07 57 944 -24 240
2018/02/06 82 184 +26 025
2018/02/05 56 159 +11 208
2018/02/04 44 951 -26 938
2018/02/03 71 889 -595
2018/02/02 72 484 -27 884
2018/02/01 100 368 -9 913
2018/01/31 110 281 +52 134
2018/01/30 58 147 -1 194
2018/01/29 59 341 -561
2018/01/28 59 902 -401
2018/01/27 60 303 -97
2018/01/26 60 400 -1 035
2018/01/25 61 435 +1 165
2018/01/24 60 270 +595
2018/01/23 59 675 +655
2018/01/22 59 020 -350
2018/01/21 59 370 +65
2018/01/20 59 305 -1 179
2018/01/19 60 484 -816
2018/01/18 61 300 +602
2018/01/17 60 698 +348
2018/01/16 60 350 -716
2018/01/15 61 066 +139
2018/01/14 60 927 -1 433
2018/01/13 62 360 -158
2018/01/12 62 518 +1 840
2018/01/11 60 678 -352
2018/01/10 61 030 -573
2018/01/09 61 603 +677
2018/01/08 60 926 -211
2018/01/07 61 137 -429
2018/01/06 61 566 +424
2018/01/05 61 142 -435
2018/01/04 61 577 +121
2018/01/03 61 456 -42
2018/01/02 61 498 -535
2018/01/01 62 033 +58
2017/12/31 61 975 -477
2017/12/30 62 452 +499
2017/12/29 61 953 -604
2017/12/28 62 557 +288
2017/12/27 62 269 -259
2017/12/26 62 528 -1 022
2017/12/25 63 550

WIDGET FOR YOUR SITE

DOMAINS WITH THE NEAREST RANK

Domain Rank
starstyle.com 71 929
sugarcrm.com 71 930
wp-types.com 71 931
zivim.hr 71 932
loudmouthgolf.com 71 933
airserver.com 71 934
ptetmdsu2018.org 71 935
tapinto.net 71 936
coyote.com 71 937
tallink.com 71 938
moviesrockers.in 71 939

DOMAINS WITH THE NEAREST RANK BY TLD .com

Domain Rank
bookganga.com 71 928
starstyle.com 71 929
sugarcrm.com 71 930
wp-types.com 71 931
loudmouthgolf.com 71 933
airserver.com 71 934
coyote.com 71 937
tallink.com 71 938
bsdap.com 71 942
russianbrides.com 71 949
speedweek.com 71 950